Date String (YYYY-MM-DD hh:mm:ss) UTC,Instrument flags,Ambient pressure (hPa),Sample flow (lpm),Bypass flow (lpm),Sample temperature (°C),Ambient temperature (°C),ASC tube jacket temperature (°C),LED temperature (°C),Box temperature (°C),Sample RH (%),Span deviation,Mass concentration (μg/m³),Mass concentration (μg/m³),Mass concentration (μg/m³)
DateTimeUTC,F1_M11,P_M11,Q1_M11,Q2_M11,T1_M11,T2_M11,T3_M11,T4_M11,T5_M11,U1_M11,ZSPAN_M11,X0_M11,X2_M11,X1_M11
2023-02-19 23:00:00,,0816.2,5.00,0.00,22.2,20.7,00.0,31.0,23.9,09.1,0000.0,0005.61,0002.30,0001.14
2023-02-19 23:01:00,,0816.1,5.01,0.00,22.2,20.6,00.0,31.0,23.8,09.0,0000.0,0005.52,0002.30,0001.14
2023-02-19 23:02:00,,0816.3,5.00,0.00,22.1,20.6,00.0,31.0,23.8,08.9,0000.0,0005.34,0002.29,0001.14
2023-02-19 23:03:00,,0816.1,5.00,0.00,22.1,20.6,00.0,31.0,23.8,09.0,0000.0,0005.47,0002.34,0001.15
2023-02-19 23:04:00,,0815.9,4.99,0.00,22.1,20.5,00.0,31.0,23.8,09.0,0000.0,0005.39,0002.30,0001.15
2023-02-19 23:05:00,,0816.2,4.98,0.00,22.1,20.4,00.0,31.0,23.8,09.0,0000.0,0005.29,0002.28,0001.17
2023-02-19 23:06:00,,0816.4,5.01,0.00,22.1,20.4,00.0,31.0,23.7,09.0,0000.0,0005.13,0002.22,0001.18
2023-02-19 23:07:00,,0816.5,5.01,0.00,22.1,20.5,00.0,31.0,23.7,09.0,0000.0,0004.56,0002.21,0001.18
2023-02-19 23:08:00,,0816.5,4.95,0.00,22.0,20.5,00.0,31.0,23.7,09.1,0000.0,0004.64,0002.31,0001.19
2023-02-19 23:09:00,,0816.6,5.00,0.00,22.0,20.4,00.0,31.0,23.7,08.9,0000.0,0004.79,0002.31,0001.19
2023-02-19 23:10:00,,0816.3,4.99,0.00,22.0,20.4,00.0,31.0,23.7,08.6,0000.0,0004.75,0002.29,0001.18
2023-02-19 23:11:00,,0816.3,5.00,0.00,22.0,20.3,00.0,31.0,23.7,08.6,0000.0,0004.67,0002.25,0001.16
2023-02-19 23:12:00,,0816.1,5.01,0.00,22.0,20.3,00.0,30.9,23.6,08.6,0000.0,0004.68,0002.24,0001.16
2023-02-19 23:13:00,,0816.1,5.01,0.00,21.9,20.2,00.0,30.9,23.6,08.4,0000.0,0004.42,0002.15,0001.15
2023-02-19 23:14:00,,0816.3,5.00,0.00,21.9,20.1,00.0,30.9,23.5,08.5,0000.0,0004.97,0002.11,0001.15
2023-02-19 23:15:00,,0816.4,4.99,0.00,21.9,20.1,00.0,30.9,23.5,08.2,0000.0,0006.35,0002.17,0001.16
2023-02-19 23:16:00,,0816.4,5.01,0.00,21.9,20.1,00.0,30.9,23.5,08.4,0000.0,0006.89,0002.17,0001.16
2023-02-19 23:17:00,,0816.4,5.00,0.00,21.8,20.1,00.0,30.9,23.5,08.4,0000.0,0007.44,0002.19,0001.16
2023-02-19 23:18:00,,0816.5,5.00,0.00,21.8,20.1,00.0,30.8,23.5,08.4,0000.0,0007.54,0002.18,0001.15
2023-02-19 23:19:00,,0816.5,4.99,0.00,21.8,20.1,00.0,30.8,23.5,08.2,0000.0,0007.43,0002.10,0001.14
2023-02-19 23:20:00,,0816.6,5.00,0.00,21.8,20.0,00.0,30.8,23.5,08.5,0000.0,0007.50,0002.12,0001.14
2023-02-19 23:21:00,,0816.3,5.00,0.00,21.8,20.0,00.0,30.8,23.4,08.6,0000.0,0007.55,0002.12,0001.15
2023-02-19 23:22:00,,0816.4,5.02,0.00,21.8,20.4,00.0,30.7,23.5,08.1,0000.0,0007.58,0002.12,0001.14
2023-02-19 23:23:00,,0816.3,4.98,0.00,21.9,21.6,00.0,30.7,23.8,08.1,0000.0,0007.60,0002.12,0001.14
2023-02-19 23:24:00,,0816.3,5.00,0.00,22.0,22.7,00.0,30.7,24.2,08.1,0000.0,0007.59,0002.10,0001.13
2023-02-19 23:25:00,,0816.1,5.00,0.00,22.2,22.8,00.0,30.8,24.3,08.1,0000.0,0007.32,0002.09,0001.13
2023-02-19 23:26:00,,0816.2,5.00,0.00,22.2,22.3,00.0,30.8,24.2,08.2,0000.0,0006.20,0002.04,0001.14
2023-02-19 23:27:00,,0816.2,4.99,0.00,22.2,21.8,00.0,30.9,24.1,08.5,0000.0,0005.76,0002.01,0001.13
2023-02-19 23:28:00,,0816.2,4.98,0.00,22.2,21.5,00.0,30.9,24.0,08.3,0000.0,0005.29,0002.01,0001.13
2023-02-19 23:29:00,,0816.1,5.01,0.00,22.2,21.2,00.0,31.0,23.9,08.4,0000.0,0005.08,0002.00,0001.13
2023-02-19 23:30:00,,0816.0,5.00,0.00,22.2,21.0,00.0,31.0,23.9,08.3,0000.0,0005.04,0002.04,0001.14
2023-02-19 23:31:00,,0816.2,5.00,0.00,22.2,20.9,00.0,31.0,23.9,08.0,0000.0,0004.82,0002.00,0001.13
2023-02-19 23:32:00,,0816.4,4.99,0.00,22.2,20.7,00.0,31.0,23.9,08.2,0000.0,0004.59,0001.97,0001.14
2023-02-19 23:33:00,,0816.3,5.01,0.00,22.1,20.6,00.0,31.0,23.9,08.6,0000.0,0005.56,0001.95,0001.15
2023-02-19 23:34:00,,0816.1,4.99,0.00,22.1,20.5,00.0,31.0,23.8,08.6,0000.0,0005.56,0001.91,0001.14
2023-02-19 23:35:00,,0816.3,5.00,0.00,22.1,20.5,00.0,31.0,23.8,08.6,0000.0,0005.61,0001.96,0001.15
2023-02-19 23:36:00,,0816.2,5.00,0.00,22.1,20.4,00.0,31.0,23.7,08.5,0000.0,0005.99,0001.99,0001.16
2023-02-19 23:37:00,,0816.0,5.00,0.00,22.0,20.4,00.0,31.0,23.7,08.8,0000.0,0006.15,0002.04,0001.15
2023-02-19 23:38:00,,0816.0,5.00,0.00,22.0,20.4,00.0,31.0,23.7,08.7,0000.0,0005.68,0002.04,0001.15
2023-02-19 23:39:00,,0816.2,4.99,0.00,22.0,20.3,00.0,31.0,23.6,08.8,0000.0,0005.57,0002.08,0001.15
2023-02-19 23:40:00,,0816.4,4.99,0.00,22.0,20.3,00.0,31.0,23.6,08.5,0000.0,0005.40,0002.08,0001.17
2023-02-19 23:41:00,,0816.3,5.00,0.00,22.0,20.2,00.0,30.9,23.6,08.8,0000.0,0005.46,0002.06,0001.16
2023-02-19 23:42:00,,0815.8,5.00,0.00,21.9,20.2,00.0,30.9,23.6,09.0,0000.0,0005.76,0002.10,0001.16
2023-02-19 23:43:00,,0816.1,5.00,0.00,21.9,20.1,00.0,30.9,23.6,08.6,0000.0,0005.76,0002.11,0001.17
2023-02-19 23:44:00,,0816.3,5.01,0.00,21.9,20.1,00.0,30.9,23.5,08.8,0000.0,0005.30,0002.13,0001.18
2023-02-19 23:45:00,,0816.3,4.99,0.00,21.9,20.0,00.0,30.9,23.5,08.9,0000.0,0004.83,0002.15,0001.18
2023-02-19 23:46:00,,0816.2,5.00,0.00,21.8,20.0,00.0,30.9,23.5,08.9,0000.0,0004.93,0002.14,0001.19
2023-02-19 23:47:00,,0816.0,5.00,0.00,21.8,20.0,00.0,30.9,23.5,08.9,0000.0,0004.63,0002.14,0001.20
2023-02-19 23:48:00,,0816.3,5.01,0.00,21.8,20.0,00.0,30.8,23.4,08.6,0000.0,0005.06,0002.08,0001.20
2023-02-19 23:49:00,,0816.2,5.00,0.00,21.8,20.0,00.0,30.8,23.4,08.3,0000.0,0005.71,0002.05,0001.20
2023-02-19 23:50:00,,0816.3,4.99,0.00,21.8,20.0,00.0,30.8,23.4,08.8,0000.0,0006.61,0002.00,0001.20
2023-02-19 23:51:00,,0816.4,4.99,0.00,21.7,20.0,00.0,30.8,23.4,09.0,0000.0,0006.46,0001.94,0001.17
2023-02-19 23:52:00,,0816.3,5.00,0.00,21.7,20.0,00.0,30.8,23.4,09.1,0000.0,0006.41,0001.93,0001.17
2023-02-19 23:53:00,,0816.4,5.00,0.00,21.7,20.1,00.0,30.7,23.4,08.6,0000.0,0006.24,0001.93,0001.17
2023-02-19 23:54:00,,0816.3,4.97,0.00,21.8,21.1,00.0,30.7,23.6,08.5,0000.0,0006.41,0002.01,0001.17
2023-02-19 23:55:00,,0816.5,4.96,0.00,21.9,22.2,00.0,30.6,24.0,08.5,0000.0,0006.40,0002.01,0001.16
2023-02-19 23:56:00,,0816.5,4.95,0.00,22.0,22.9,00.0,30.7,24.2,08.4,0000.0,0006.74,0002.05,0001.17
2023-02-19 23:57:00,,0816.8,5.01,0.00,22.1,22.4,00.0,30.8,24.1,08.3,0000.0,0006.73,0002.05,0001.15
2023-02-19 23:58:00,,0816.6,5.01,0.00,22.1,21.9,00.0,30.8,24.0,08.3,0000.0,0006.54,0002.00,0001.15
2023-02-19 23:59:00,,0816.6,4.98,0.00,22.1,21.5,00.0,30.9,24.0,08.3,0000.0,0006.40,0002.02,0001.15
